Regional Weather Roundup
Issued by NWS

Home | Current Version | Previous Version | Graphics & Text | Print | Product List | Glossary On
Versions: 1 2 3 4 5 6 7 8 9 10 11 12 13 14 15 16 17 18 19 20 21 22 23 24 25 26 27 28 29 30 31 32 33 34 35 36 37 38 39 40 41 42 43 44 45 46 47 48 49 50
000
ASUS43 KIND 261359
RWRIN

WEATHER ROUNDUP FOR INDIANA
NATIONAL WEATHER SERVICE INDIANAPOLIS IN
1000 AM EDT MON JUN 26 2017

NOTE: "FAIR" INDICATES FEW OR NO CLOUDS BELOW 12,000 FEET WITH NO
SIGNIFICANT WEATHER AND/OR OBSTRUCTIONS TO VISIBILITY.

* - STATION DOES NOT REPORT WEATHER SUCH AS PRECIPITATION OR FOG.

+ - STATION NOT QUALITY CONTROLLED BY THE NATIONAL WEATHER SERVICE.
    USE DATA WITH CAUTION...ESPECIALLY DEWPOINT AND RELATIVE
    HUMIDITY OBSERVATIONS.

INZ001>003-010>013-019-020-261500-
NORTHWEST INDIANA

CITY           SKY/WX    TMP DP  RH WIND       PRES   REMARKS
GARY /AIRPORT/ MOSUNNY   66  46  48 SW9       30.12
KNOX *+        MOSUNNY   63  37  39 W7        30.12F
MICHIGAN CITY+ SUNNY     63  52  67 W6        30.11F
MONTICELLO +   SUNNY     65  50  57 W10       30.14S

$$

LMZ046-743>745-261500-
SOUTHERN LAKE MICHIGAN

STATION/POSITION TIME  TEMP    WIND        PRES    WAVE
                       AIR SEA DIR/SP/G            HT
                 (UTC) (F)     (DEG/KT/KT) (MB)    (FT)
BURNS HARBOR     1340   62     260/  8/ 10 1020.0F
MICHIGAN CITY    1330   60     250/ 12/ 13   N/A
5NW MICH CITY    1350   61 66  260/ 10/ 12   N/A     3

$$

INZ004-005-014>016-021>024-261500-
NORTH CENTRAL INDIANA

CITY           SKY/WX    TMP DP  RH WIND       PRES   REMARKS
ELKHART        MOSUNNY   63  54  72 W14       30.10F
GOSHEN         MOSUNNY   64  51  62 W13       30.10F
SOUTH BEND     MOSUNNY   63  53  70 W14       30.10F

$$

INZ006>009-017-018-025>027-261500-
NORTHEAST INDIANA

CITY           SKY/WX    TMP DP  RH WIND       PRES   REMARKS
FORT WAYNE     MOSUNNY   65  49  56 W9        30.13S
KENDALLVILLE + SUNNY     64  51  64 W10G18    30.11S

$$

INZ028-029-035-036-043>045-051>053-261500-
WEST CENTRAL INDIANA

CITY           SKY/WX    TMP DP  RH WIND       PRES   REMARKS
LAFAYETTE      SUNNY     64  54  69 W6        30.15F
TERRE HAUTE    SUNNY     67  52  58 SW6       30.18F

$$

INZ030>032-037>040-046>048-054>057-064-065-261500-
CENTRAL INDIANA

CITY           SKY/WX    TMP DP  RH WIND       PRES   REMARKS
COLUMBUS       SUNNY     64  48  55 NW6       30.19R
GREENWOOD *+   SUNNY     65  49  54 NW8       30.19S
INDIANAPOLIS   MOSUNNY   67  50  54 W10       30.17S
-EAGLE CREEK   SUNNY     67  49  52 W8        30.17S
KOKOMO +       SUNNY     65  51  60 W12       30.16S
MT COMFORT *+  SUNNY     64  52  63 NW8       30.18R
SHELBYVILLE    SUNNY     68  50  52 NW10      30.17S

$$

INZ033-034-041-042-049-050-058-059-261500-
EAST CENTRAL INDIANA

CITY           SKY/WX    TMP DP  RH WIND       PRES   REMARKS
MUNCIE         SUNNY     65  52  62 W8        30.15F
RICHMOND +     SUNNY     61  50  67 W12       30.17S

$$

INZ060-061-067>069-081>083-085>088-261500-
SOUTHWEST INDIANA

CITY           SKY/WX    TMP DP  RH WIND       PRES   REMARKS
EVANSVILLE     SUNNY     69  50  50 W5        30.22S
HUNTINGBURG *+ SUNNY     68  55  63 S3        30.21S

$$

INZ062-063-066-070>080-084-089>092-261500-
SOUTH CENTRAL AND SOUTHEAST INDIANA

CITY           SKY/WX    TMP DP  RH WIND       PRES   REMARKS
BLOOMINGTON    SUNNY     68  50  52 W5        30.19S
MADISON *+     SUNNY     66  46  48 NW5       30.21S
SEYMOUR +      SUNNY    N/A N/A N/A NW6       30.19R

$$




USA.gov is the U.S. government's official web portal to all federal, state and local government web resources and services.